Theta_e
323 326 328 327 327 327 326 325 328 326 330 331 334 335 334 334 335 336 336 341 339 342 343 346 348 350 352 352 351 350 346 346 344 338 338 336 334 334 334 334 335 334 333 333
325 326 326 327 329 329 330 328 330 328 332 331 332 335 334 334 334 335 338 346 340 342 345 347 348 349 350 350 350 348 344 345 343 340 339 337 336 335 335 334 336 334 333 333
325 327 329 330 331 329 330 333 328 327 326 329 334 334 332 331 330 330 332 336 345 345 345 349 350 349 348 347 347 346 344 342 342 341 338 337 337 337 335 334 334 335 333 334
325 325 329 327 330 333 336 336 334 331 331 331 334 332 330 328 329 330 329 329 331 340 346 350 352 350 347 344 344 343 342 342 341 341 339 338 337 337 335 335 336 336 336 334
326 324 326 332 333 335 335 336 336 336 334 332 331 333 335 327 328 328 328 329 332 336 341 347 351 350 345 341 342 341 340 340 340 340 340 338 337 336 336 336 336 337 336 326
338 332 330 331 336 334 332 337 334 334 334 332 333 335 334 333 329 331 333 335 337 340 346 350 349 345 342 341 340 340 340 340 339 338 338 337 337 336 336 336 338 337 335 333
337 337 333 333 337 334 335 335 335 332 331 331 334 333 331 329 333 332 335 338 341 345 349 350 346 343 340 339 340 340 340 338 337 339 339 337 337 337 337 339 338 335 333 329
337 335 336 335 336 342 335 333 332 332 333 334 332 332 332 330 328 329 332 336 340 348 351 347 343 343 340 339 339 340 339 339 338 332 334 340 338 339 339 338 334 332 330 328
344 342 335 333 332 331 330 330 331 331 331 331 333 333 333 332 331 328 328 332 337 343 347 347 344 342 337 338 341 338 337 336 327 328 330 330 341 340 337 332 329 329 329 331
338 336 338 335 331 330 330 331 329 330 332 332 332 334 334 334 339 341 339 337 346 341 337 334 339 341 340 337 335 332 329 330 329 328 327 329 338 336 332 331 332 330 330 328
340 338 333 331 329 328 329 329 329 328 329 330 335 344 346 343 341 337 335 336 337 338 335 333 335 334 334 334 333 330 330 329 330 328 331 336 334 333 332 328 325 326 324 323
339 335 332 330 328 326 324 325 323 323 322 324 329 342 345 342 338 335 334 336 335 336 334 330 330 330 329 326 326 327 327 326 327 329 332 335 333 325 322 321 321 321 320 319
333 330 329 327 324 321 321 321 320 319 319 319 319 322 327 339 337 335 335 335 335 335 335 333 331 329 328 327 326 325 326 330 333 333 334 329 325 324 319 318 318 318 316 315
327 320 318 318 318 318 321 322 320 320 319 319 319 319 320 321 336 336 336 335 333 331 329 330 329 330 327 324 326 326 331 332 330 328 329 326 323 323 321 319 316 314 313 312
318 317 317 317 317 317 317 318 317 317 317 317 319 319 320 319 323 329 336 336 334 330 329 331 333 334 334 333 333 332 331 329 329 329 329 328 328 326 323 320 318 316 314 313
317 316 316 316 316 316 316 316 315 314 314 314 315 317 320 323 329 333 335 333 333 332 333 333 333 333 333 329 326 327 327 326 328 330 329 326 323 323 323 321 319 316 315 313
318 318 316 316 316 317 316 315 314 314 314 314 315 317 318 326 330 331 331 334 334 333 333 334 333 331 324 321 321 324 327 325 323 326 325 323 321 321 319 318 316 314 313 310
317 317 317 317 316 316 316 316 315 315 315 318 319 318 322 329 327 328 328 329 329 329 326 324 324 323 324 327 328 324 324 323 323 324 324 322 322 320 318 316 315 314 311 307
319 319 318 318 318 317 315 316 319 320 319 322 321 318 328 329 330 328 328 328 327 325 326 328 329 329 328 325 326 325 323 323 324 322 321 320 319 318 318 317 315 313 310 307
320 321 320 321 321 321 319 321 322 322 322 325 325 325 326 327 329 328 326 324 327 327 328 327 327 326 324 322 319 321 322 321 319 320 320 319 318 317 315 315 315 313 311 309
320 320 322 322 321 321 321 321 323 321 318 320 320 320 324 324 325 324 323 322 325 326 325 324 325 324 324 320 317 316 316 315 315 315 316 316 315 314 313 312 311 310 311 310
320 320 320 320 320 319 319 318 320 320 318 321 318 319 320 321 324 325 323 322 323 325 324 322 323 322 319 316 314 313 312 309 310 314 314 314 314 313 312 312 311 310 308 309
317 319 319 319 318 318 319 321 320 320 321 322 322 323 322 322 323 321 319 321 321 322 321 321 320 319 317 316 313 311 308 307 308 311 313 313 313 312 311 308 308 309 307 305
317 318 318 318 319 320 315 319 320 321 321 321 320 319 319 321 321 322 321 321 320 319 318 317 318 318 315 312 311 308 306 306 305 305 305 305 307 308 307 306 307 307 307 304
317 317 318 316 314 315 317 319 319 320 320 320 321 319 318 317 318 319 320 319 318 317 317 316 316 314 312 309 309 307 306 306 304 304 304 304 304 305 305 306 306 306 304 303
317 316 316 315 316 315 316 318 318 318 319 319 319 319 318 317 316 315 316 316 316 316 316 315 313 311 310 309 308 307 306 306 304 304 304 304 303 302 303 303 304 305 304 303
316 314 313 314 315 317 317 317 317 316 316 317 317 319 318 319 318 317 317 315 314 314 313 313 312 311 310 310 309 307 307 306 306 305 304 303 303 302 301 302 303 303 303 303
Wind_Speed
10 19 10 14 12 9 6 9 9 8 11 10 11 12 13 13 11 10 9 10 16 18 18 25 28 30 30 30 35 43 42 41 41 38 31 25 24 25 24 23 22 19 17 17
16 8 8 7 9 14 7 5 2 6 7 11 12 9 8 13 11 9 7 9 10 15 17 20 30 32 35 36 39 38 39 39 39 36 30 29 26 25 25 25 23 21 19 18
9 7 6 4 2 6 3 4 6 7 11 10 5 9 10 9 9 10 9 6 9 9 10 21 29 33 32 34 36 44 41 41 40 36 33 34 31 27 26 28 25 25 22 20
5 4 5 7 1 12 11 5 7 6 9 16 13 8 7 7 9 10 10 9 8 7 15 28 31 29 26 34 39 38 37 40 41 40 39 38 34 31 29 28 27 26 23 22
5 5 4 3 5 5 6 5 6 2 6 8 12 7 3 6 7 9 8 6 4 7 13 28 29 30 36 34 38 36 35 41 41 41 40 37 35 34 32 31 29 24 19 15
3 6 5 1 6 5 7 6 9 7 8 6 5 7 3 3 7 7 8 11 9 10 10 17 25 32 33 33 31 31 38 45 42 39 37 38 39 36 33 31 30 22 19 24
3 4 2 5 8 2 8 6 5 5 8 7 6 3 3 3 5 7 10 14 14 14 19 25 29 30 28 31 30 36 37 41 37 33 40 43 40 33 30 26 14 11 8 15
4 4 4 15 7 7 4 3 7 8 6 9 7 6 6 8 8 6 3 6 16 17 18 24 31 30 26 23 17 18 14 8 5 10 21 29 35 28 21 14 10 7 12 15
4 3 7 9 9 3 4 6 6 9 6 6 7 3 1 1 4 7 10 8 16 8 16 15 19 24 25 17 21 22 19 16 17 24 16 34 16 16 16 11 5 11 14 12
7 3 4 5 6 8 9 8 9 7 6 7 5 7 7 5 3 5 7 6 11 19 18 20 33 33 29 24 25 25 22 17 14 12 6 31 14 14 12 11 12 8 7 6
1 3 2 4 5 5 8 11 9 8 6 6 9 9 6 3 3 4 4 6 7 15 20 21 28 32 31 27 20 15 16 18 21 17 26 27 18 17 16 14 9 8 9 10
4 4 4 5 4 4 11 6 1 3 7 6 6 3 1 4 1 4 7 15 17 19 22 27 31 28 23 22 17 17 15 7 5 19 24 24 19 13 11 10 8 7 6 5
6 7 7 3 6 4 8 7 9 9 8 6 6 5 7 3 6 12 16 19 22 23 25 24 23 22 19 14 10 15 19 13 13 20 27 24 21 20 16 10 10 9 9 8
6 5 8 6 4 8 10 8 11 10 13 10 10 11 7 9 8 9 13 22 28 29 28 27 23 19 18 15 12 7 3 8 10 17 22 22 19 16 15 16 15 12 11 9
9 9 6 7 11 9 7 10 11 9 8 11 16 12 14 9 6 14 16 7 15 23 21 20 16 12 11 11 10 7 4 3 5 10 14 16 15 13 13 14 14 13 11 9
10 12 12 11 9 10 9 11 8 8 8 6 7 15 20 22 20 11 10 19 21 15 22 23 21 17 15 14 10 8 3 1 4 12 16 17 17 20 21 20 19 17 13 9
12 10 9 7 7 6 6 6 6 6 6 7 9 21 23 21 8 6 10 14 16 21 25 24 20 18 13 6 6 7 9 7 8 14 19 20 18 17 20 19 17 15 11 8
6 3 4 3 5 6 6 6 7 10 7 13 20 21 16 10 5 7 14 21 19 16 20 14 11 12 13 12 10 9 6 7 8 11 15 16 13 11 13 14 16 18 14 12
6 5 5 5 4 2 4 3 7 13 12 12 14 11 9 6 10 16 17 18 18 15 11 8 12 14 13 11 8 7 7 7 9 12 13 13 12 11 12 14 19 19 17 16
6 7 7 8 9 6 5 10 12 6 14 12 11 8 2 5 8 17 18 15 15 8 13 10 10 13 11 8 8 10 11 8 6 6 10 11 10 9 8 8 17 19 18 19
6 7 6 7 8 14 13 13 4 7 8 3 8 7 7 6 10 9 12 5 8 7 9 8 10 9 6 6 6 5 5 4 6 8 8 9 10 10 7 9 12 14 17 22
6 6 7 10 8 7 13 14 15 11 10 6 5 5 5 3 5 10 9 10 9 11 13 12 12 8 6 5 4 5 2 4 8 11 14 15 14 13 11 12 13 16 17 23
9 8 10 11 9 10 13 11 10 10 8 6 5 4 4 4 9 9 3 11 13 13 13 11 10 8 7 7 4 1 4 5 6 7 19 19 18 16 13 10 11 16 17 21
13 14 13 12 12 10 6 11 10 7 7 8 9 6 4 1 4 7 6 16 14 13 11 10 12 13 11 9 6 3 5 4 5 7 6 3 8 13 13 11 12 15 19 22
14 13 13 11 8 7 9 8 8 6 6 7 5 6 6 6 4 4 8 12 13 14 12 11 15 14 12 9 6 6 4 5 9 7 6 4 3 6 7 10 13 16 22 22
11 12 16 15 16 15 9 7 6 5 4 5 6 3 1 2 4 6 8 11 12 17 18 18 17 15 14 12 9 7 6 7 9 8 6 5 4 6 11 9 12 16 20 18
14 15 13 16 6 10 16 15 12 11 8 7 9 11 8 10 10 8 8 11 15 20 19 18 19 20 17 15 14 12 11 11 9 8 12 13 12 9 12 9 13 17 19 18
Wind_Direction
213 223 211 203 184 160 153 181 169 217 183 208 192 181 182 177 173 172 187 169 185 194 200 198 197 200 197 192 190 192 193 196 201 200 203 207 209 219 227 229 236 241 247 252
227 229 212 164 210 160 153 132 72 160 213 196 198 166 167 180 175 162 193 178 191 206 199 196 196 195 191 189 193 184 188 193 200 207 204 209 211 219 224 230 235 244 248 258
214 158 117 74 119 215 245 73 200 169 220 160 163 185 172 161 166 154 149 154 182 181 198 209 204 198 191 189 182 189 188 193 203 206 208 212 217 219 227 232 235 242 245 248
173 111 134 233 173 106 92 8 327 256 187 176 178 169 161 165 146 152 151 165 177 176 198 205 206 203 193 185 182 179 189 197 204 204 214 216 217 222 231 236 240 244 248 255
132 145 198 46 26 153 137 347 318 237 85 126 125 91 37 193 163 162 165 164 177 206 223 214 204 191 185 176 179 181 186 201 204 210 212 215 220 226 233 236 240 243 236 269
85 120 167 218 298 357 103 20 325 75 76 97 74 100 254 302 143 145 158 151 173 215 227 198 189 182 175 176 177 178 189 204 203 212 217 218 224 228 233 237 239 241 248 267
87 130 313 275 291 213 78 219 322 57 69 67 86 152 274 66 65 150 167 179 196 206 202 196 180 171 174 175 183 186 200 200 209 216 220 225 226 228 230 238 220 179 221 261
1 55 27 351 311 84 208 52 68 41 62 82 57 28 32 16 356 350 354 267 213 196 203 187 174 168 170 172 171 169 176 188 93 357 320 271 222 222 229 211 166 204 247 255
91 153 262 322 71 90 80 90 61 67 30 77 79 25 93 195 320 336 305 282 255 224 109 147 156 156 129 123 147 142 135 139 74 16 335 328 283 228 162 158 205 242 244 267
116 241 302 319 30 39 61 62 44 67 27 46 25 6 358 351 290 262 313 321 152 126 118 116 131 138 138 142 142 124 108 90 89 111 169 262 237 177 175 211 215 225 228 213
279 100 1 10 23 95 72 59 40 22 16 30 26 5 13 10 345 33 17 10 105 115 117 112 125 128 129 134 138 146 171 186 181 202 202 216 190 185 200 204 194 177 175 186
194 125 121 268 283 287 82 88 357 23 5 358 71 306 307 148 6 183 113 92 74 95 109 118 126 130 133 136 133 155 184 163 210 217 215 201 197 184 174 150 144 152 160 183
149 198 197 174 6 18 70 45 57 46 38 13 35 24 10 324 272 167 149 132 129 134 137 142 137 137 145 162 182 210 213 234 210 203 194 190 187 178 151 141 144 134 145 152
90 95 57 43 35 23 45 34 49 48 34 19 2 15 8 343 321 265 190 164 147 146 149 151 159 167 171 217 279 296 270 174 174 195 192 185 178 174 174 167 156 150 147 150
70 72 97 77 43 33 40 33 34 22 14 6 358 349 351 337 297 278 249 173 151 144 148 157 154 142 153 148 130 118 136 110 161 178 174 170 175 191 177 167 167 164 166 177
58 49 41 44 26 15 16 17 17 357 359 342 345 338 338 332 337 326 174 175 154 157 151 147 140 143 152 147 114 102 84 28 122 164 168 171 168 156 160 163 171 168 173 175
51 28 19 16 16 3 355 339 332 319 320 332 323 329 335 327 357 94 117 159 158 147 148 142 149 163 167 177 162 194 233 208 201 191 177 175 171 166 163 169 181 183 175 176
78 62 21 337 327 315 315 319 325 315 298 311 317 315 320 300 260 172 144 133 124 134 152 145 160 163 152 164 178 159 150 172 179 187 186 180 182 182 184 184 188 182 177 170
41 28 6 351 323 287 273 289 302 312 306 318 305 287 260 267 177 154 140 131 140 160 184 168 151 149 154 165 180 177 175 169 166 179 188 188 186 190 195 203 201 196 188 180
4 12 356 331 351 3 338 335 333 4 11 21 61 80 93 80 156 165 163 155 173 189 166 153 155 160 140 133 137 141 153 153 143 166 183 189 187 193 219 220 203 207 204 197
339 341 349 2 5 13 2 356 4 354 0 23 89 104 123 116 107 133 137 136 181 200 197 178 169 152 134 130 144 132 138 156 179 189 196 216 224 228 233 210 195 190 205 204
1 6 0 351 353 337 356 345 334 353 17 22 41 78 100 136 163 195 203 174 165 163 156 162 172 169 160 151 118 136 69 354 307 246 231 227 229 234 248 236 236 217 199 196
343 346 341 337 337 344 353 347 349 4 9 339 320 231 245 249 197 153 139 171 160 161 167 172 174 181 203 196 197 233 349 10 351 259 234 244 242 235 223 218 218 212 199 192
319 326 324 327 333 336 338 325 327 335 348 10 40 47 21 351 177 192 201 176 181 184 190 194 197 203 198 193 205 273 321 291 146 121 117 151 212 209 214 205 196 199 200 186
304 308 315 310 322 305 302 309 330 351 344 359 22 27 14 354 272 188 187 186 195 208 205 205 203 201 203 206 228 292 320 255 210 199 189 163 171 212 214 214 206 194 189 190
286 285 291 291 271 268 283 299 280 305 316 324 328 315 263 182 169 189 207 222 221 214 214 207 209 216 221 229 246 273 291 320 224 212 218 219 233 239 243 236 210 201 196 200
285 282 304 327 337 279 270 273 268 267 277 270 271 280 265 239 241 242 234 228 215 210 220 222 222 225 230 243 256 258 273 270 258 254 244 228 227 237 233 229 224 214 210 207